Voltar ao catálogo

RASSVET-3 11

AtivoCiênciaPO
NORAD 68370·PAYLOAD·🇷🇺 Russia

Lançado Mar 23, 2026 de Plesetsk Cosmodrome

Loading…

Próximas Passagens (próximas 24 horas)

TLE

AtualizadoSource: Space-Track

Época: Sep 14, 2026, 14:10 UTC

1 68370U 26061L   26257.59084033  .00024034  00000-0  24748-3 0  9994
2 68370  82.2867 273.7493 0004308 174.7049 185.4256 15.64680949 27586

Acompanhe RASSVET-3 11 em tempo real com AllMySat

Download on the App Store